Location: Newark
(49.8167°N, 23.9500°E)
Time: 12:43:12
(UTC+00:00)

Envisat - Visible Passes

Search period start: 15 December 2019 00:00
Search period end: 25 December 2019 00:00
Orbit: 764 x 766 km, 98.1° (Epoch: 15 December)

Date Brightness Start Highest point End Pass type
(mag) Time Alt. Az. Time Alt. Az. Time Alt. Az.
15 Dec 4.1 04:54:20 10° NNE 04:59:17 48° E 05:04:11 10° S visible
15 Dec 3.0 16:13:12 10° SSE 16:18:18 85° WSW 16:23:25 10° NNW visible
15 Dec 6.0 17:55:46 10° WSW 17:58:07 13° W 18:00:28 10° WNW visible
16 Dec 5.4 04:18:05 10° NE 04:22:14 24° E 04:26:20 10° SE visible
16 Dec 3.2 15:36:43 10° SE 15:41:36 49° ENE 15:46:30 10° N visible
16 Dec 5.1 17:16:38 10° SSW 17:20:53 26° W 17:25:08 10° NW visible
17 Dec 6.2 03:43:02 10° ENE 03:44:58 12° E 03:46:55 10° ESE visible
17 Dec 3.2 05:19:43 10° NNE 05:24:51 79° ESE 05:29:56 10° S visible
17 Dec 3.9 15:00:55 10° ESE 15:05:06 26° ENE 15:09:17 10° N visible
17 Dec 3.8 16:38:54 10° S 16:43:51 52° W 16:48:50 10° NNW visible
18 Dec 4.5 04:43:09 10° NNE 04:47:56 39° E 04:52:41 10° SSE visible
18 Dec 2.9 16:01:57 10° SSE 16:07:01 79° ENE 16:12:08 10° NNW visible
18 Dec 5.8 17:43:32 10° SW 17:46:40 16° W 17:49:49 10° NW visible
19 Dec 5.7 04:07:06 10° NE 04:10:49 20° E 04:14:31 10° SE visible
19 Dec 3.4 15:25:39 10° SE 15:30:22 41° ENE 15:35:08 10° N visible
19 Dec 4.8 17:04:58 10° SSW 17:09:30 32° W 17:14:04 10° NNW visible
20 Dec 3.5 05:08:28 10° NNE 05:13:33 65° ESE 05:18:35 10° S visible
20 Dec 3.4 16:27:29 10° S 16:32:32 64° WSW 16:37:36 10° NNW visible
21 Dec 4.9 04:32:01 10° NNE 04:36:35 32° E 04:41:06 10° SSE visible
21 Dec 2.9 15:50:44 10° SSE 15:55:45 65° ENE 16:00:49 10° N visible
21 Dec 5.5 17:31:33 10° SW 17:35:14 20° W 17:38:57 10° NW visible
22 Dec 6.0 03:56:15 10° NE 03:59:24 16° E 04:02:32 10° SE visible
22 Dec 3.0 05:33:57 10° NNE 05:39:04 79° WNW 05:44:08 10° SSW visible
22 Dec 3.6 15:14:39 10° SE 15:19:10 34° ENE 15:23:43 10° N visible
22 Dec 4.4 16:53:24 10° SSW 16:58:08 39° W 17:02:55 10° NNW visible
23 Dec 3.9 04:57:14 10° NNE 05:02:13 52° E 05:07:10 10° S visible
23 Dec 3.1 16:16:09 10° S 16:21:14 79° WSW 16:26:21 10° NNW visible
23 Dec 6.1 17:59:11 10° WSW 18:01:06 12° W 18:03:01 10° WNW visible
24 Dec 5.3 04:20:55 10° NE 04:25:12 26° E 04:29:26 10° SSE visible
24 Dec 3.1 15:39:35 10° SE 15:44:30 53° ENE 15:49:28 10° N visible
24 Dec 5.2 17:19:44 10° SW 17:23:51 24° W 17:27:59 10° NW visible
